Location: Wyoming Skies Observatory
(43.6910°N, 108.3105°W)
Time: 03:53:00
(UTC-07:00)

Daily predictions for brighter satellites

Satellite Brightness Start Highest point End
(mag) Time Altitude Azimuth Time Altitude Azimuth Time Altitude Azimuth
Cosmos 2227 Rocket 4.2 04:00:39 24° ENE 04:00:39 24° ENE 04:03:26 10° NE
USA 234 4.3 04:21:12 10° E 04:27:01 35° NNE 04:27:25 35° N
Cosmos 2333 Rocket 4.2 04:32:19 19° SSE 04:32:19 19° SSE 04:33:47 10° SSE
COSMO-SKYMED 1 3.6 04:54:17 10° SE 04:58:23 43° ENE 04:58:24 43° ENE
NOAA 6 4.4 05:01:44 10° NNE 05:06:54 63° ESE 05:12:02 10° S
SeaSat 1 4.2 05:03:10 10° NNE 05:04:58 22° N 05:04:58 22° N
Cosmos 1500 Rocket 4.4 05:11:49 31° NNE 05:13:37 50° ENE 05:17:56 10° SSE
Cosmos 1816 Rocket 4.5 05:08:05 10° N 05:14:28 84° E 05:20:44 10° S
Cosmos 2237 Rocket 3.1 05:18:04 34° SSW 05:18:04 34° SSW 05:21:29 10° S
Feng Yun 1-1 Rocket 4.1 05:11:40 10° N 05:16:42 68° NW 05:16:42 68° NW
SL-16 R/B 2.2 05:17:40 45° NNW 05:19:31 81° ENE 05:25:11 10° SSE
USA 229 DEB 3.7 05:21:03 44° NW 05:23:34 77° WSW 05:30:47 10° SSE
USA 229 3.7 05:21:07 44° NW 05:23:40 77° WSW 05:30:53 10° SSE
Tsikada Rocket 3.9 05:18:40 13° NNW 05:24:21 69° W 05:30:36 10° S
SKYMED 3 4.4 05:24:02 10° SSE 05:28:22 89° ENE 05:28:48 72° NNW
Meteor 2-17 Rocket 4.4 05:26:47 43° SW 05:28:25 57° WNW 05:34:23 10° N
Cosmos 2297 Rocket 2.1 05:28:51 55° WSW 05:29:51 65° WNW 05:35:30 10° NNE
Aureole 2 Rocket 3.3 05:31:12 52° S 05:31:12 52° S 05:34:29 10° S
Cosmos 783 Rocket 4.4 05:31:54 59° WNW 05:32:34 65° WSW 05:37:45 10° S
Cosmos 540 Rocket 3.9 05:38:28 40° SW 05:38:28 40° SW 05:42:25 10° S
ISS -2.7 05:38:40 55° E 05:38:40 55° E 05:41:19 10° ESE
Cosmos 1271 Rocket 4.2 05:35:21 10° SSE 05:38:55 38° E 05:42:27 10° NNE
SL-14 R/B 3.7 05:38:24 17° N 05:41:25 63° E 05:45:26 10° SSE
Cosmos 2227 Rocket 2.6 05:42:32 40° NW 05:42:32 40° NW 05:47:44 10° NNE
Meteor 1-16 Rocket 4.4 05:38:53 10° S 05:44:17 68° E 05:49:35 10° NNE
Meteor 1-28 Rocket 3.1 05:40:33 10° SSE 05:44:18 84° ENE 05:45:39 38° N
ATLAS 2AS CENTAUR R/B 4.5 05:38:44 11° NNW 05:45:13 29° NNE 05:51:52 10° E
Cosmos 304 Rocket 3.6 05:43:38 39° NNW 05:45:21 74° WSW 05:50:07 10° SSE
SKYMED 2 3.5 05:42:11 10° S 05:46:26 58° W 05:47:03 52° WNW
Meteor 1-4 Rocket 2.5 05:43:26 10° S 05:47:09 85° W 05:50:57 10° N
CZ-3 Stage 3 3.8 05:44:39 15° SSW 05:47:33 25° SSE 05:57:37 10° ESE
SL-24 R/B 4.4 05:46:57 10° N 05:51:35 65° WNW 05:56:59 10° SSW
Cosmos 1725 Rocket 4.3 05:46:50 10° SW 05:52:42 42° WNW 05:58:38 10° N
CZ-4 R/B 3.3 05:51:59 10° NNE 05:55:38 32° E 05:59:19 10° SSE
ERBS 2.7 05:57:17 42° NNW 05:58:09 57° NE 06:01:31 10° ESE
Cosmos 1538 Rocket 4.0 05:56:26 15° NNW 06:00:58 80° WSW 06:06:19 10° SSE
Cosmos 1626 4.0 05:57:43 10° NNE 06:01:07 31° ENE 06:04:29 10° SE
Coronas F rocket 4.4 06:04:19 10° NE 06:05:23 12° ENE 06:06:27 10° E
USA 234 3.3 06:02:56 10° ESE 06:09:29 79° NE 06:14:46 17° NW
Cosmos 2221 2.6 06:09:14 10° S 06:13:34 79° E 06:17:55 10° N
Ariane Rocket 2.9 06:08:36 10° N 06:13:40 68° WNW 06:18:44 10° SSW
SL-8 R/B 3.9 06:12:12 26° WNW 06:14:48 65° NNE 06:19:35 10° E
Cosmos 1680 Rocket 4.3 06:12:31 10° NNW 06:17:43 52° ENE 06:22:54 10° SE
NOSS 3-1 (C) 4.0 06:12:11 14° NW 06:18:59 79° WSW 06:27:19 10° SSE
CSL-04 Debris 4.1 06:15:00 10° NNE 06:20:31 85° WNW 06:25:59 10° SSW
Cosmos 1603 3.6 06:17:41 10° NNW 06:23:20 85° WSW 06:28:59 10° SSE
Cosmos 2058 3.1 06:25:01 10° NNW 06:29:00 49° W 06:32:58 10° SSW
TELKOM 3 3.3 06:29:53 13° SW 06:32:03 63° SSE 06:34:11 10° ENE
Cosmos 2263 Rocket 4.2 06:28:03 10° SSE 06:33:03 33° ESE 06:38:05 10° NE
COSMO-SKYMED 1 4.0 06:31:43 10° SW 06:34:44 18° W 06:35:37 17° WNW
Cosmos 292 Rocket 3.7 06:36:06 10° NNW 06:40:54 87° WSW 06:45:42 10° SSE
PAYLOAD A 3.9 06:36:05 10° N 06:41:07 61° WNW 06:45:56 10° SSW
CZ-2C R/B 2.2 06:38:01 10° NNE 06:42:39 85° WNW 06:47:13 10° SSW
Cosmos 1805 Rocket 3.6 06:39:10 10° NNW 06:43:33 60° W 06:47:51 10° S
Cosmos 2151 4.1 06:43:27 10° NW 06:46:51 24° W 06:50:13 10° SW
Genesis I 3.4 06:43:33 12° NW 06:47:02 54° WSW 06:50:51 10° SSE
Helios 1B rocket 2.4 06:44:33 10° SSE 06:48:41 88° ENE 06:52:48 10° NNW
Cosmos 968 Rocket 4.3 06:44:57 10° WSW 06:49:33 30° WNW 06:54:11 10° N
CSL-04 Rocket 4.0 06:46:07 10° N 06:51:03 40° WNW 06:55:55 10° SW
SMAP 3.0 06:46:41 10° N 06:51:22 80° WNW 06:56:01 10° SSW
Cosmos 2112 Rocket 4.1 06:46:42 10° NNW 06:52:04 88° ENE 06:57:25 10° SSE
Cosmos 2227 4.2 06:46:54 10° SW 06:52:25 57° WNW 06:57:58 10° NNE
SJ-7 4.3 06:49:16 10° N 06:53:17 74° WNW 06:57:18 10° SSW
Cosmos 1356 Rocket 3.6 06:50:18 10° NNW 06:54:16 50° W 06:58:15 10° S
MOS 1 4.4 06:48:54 10° NNE 06:54:38 86° ESE 07:00:21 10° SSW
Cosmos 1703 3.7 06:50:59 10° NNW 06:54:41 41° W 06:58:22 10° SSW
Tiangong 2 4.1 06:56:13 10° S 06:58:02 14° SSE 06:59:51 10° ESE
Cosmos 2034 Rocket 4.1 06:54:32 10° SSW 07:00:36 58° W 07:06:47 10° N
SL-16 R/B 3.8 06:59:51 10° WNW 07:02:51 15° W 07:05:51 10° SW
Cosmos 1726 4.3 07:01:20 10° SSE 07:04:35 30° E 07:07:51 10° NNE
Cosmos 1340 Rocket 4.2 07:01:53 10° NW 07:04:45 19° W 07:07:37 10° SW
COSMOS 2441 4.4 07:00:10 10° NNE 07:04:59 90° ENE 07:09:47 10° SSW
Nadezhda 4 Rocket 4.1 07:03:12 10° NNW 07:09:28 65° W 07:15:41 10° S
Sich 1 3.3 07:06:31 10° NNW 07:10:44 46° W 07:14:52 10° SSW
SPOT 3 Rocket 3.6 07:06:21 10° N 07:11:31 68° WNW 07:16:41 10° SSW
Cosmos 1633 Rocket 3.2 07:07:24 10° NNW 07:11:39 52° W 07:15:52 10° S
Cosmos 1184 Rocket 3.6 07:09:27 10° NNW 07:12:27 33° W 07:15:27 10° SSW
APEX 4.4 07:09:39 10° S 07:13:31 45° ESE 07:16:40 10° NE
ISS -1.2 07:12:19 10° W 07:14:11 14° SW 07:16:02 10° SSW
Cosmos 2297 Rocket 3.9 07:12:32 10° WNW 07:15:04 13° NW 07:17:38 10° NNW
Cosmos 1271 Rocket 4.3 07:12:49 10° WSW 07:15:08 15° WNW 07:17:25 10° NNW
